Glencoe, MN

12:08 PM CDT on October 21, 2017 (GMT -0500)
Glencoe Municipal

Weather History for KGYL - July, 2013

Change the Weather History Date:

Thursday, July 4, 2013

  Actual Average (KHCD) Record (KHCD)
Temperature  
Mean Temperature 76 °F -  
Max Temperature 88 °F 83 °F 101 °F (1990)
Min Temperature 63 °F 61 °F 44 °F (1967)
Cooling Degree Days 10    
Growing Degree Days 26 (Base 50)    
Moisture  
Dew Point 53 °F    
Average Humidity 47    
Maximum Humidity 76    
Minimum Humidity 22    
Precipitation  
Precipitation 0.00 in - - ()
Sea Level Pressure  
Sea Level Pressure 29.91 in    
Wind  
Wind Speed 6 mph (South)    
Max Wind Speed 14 mph    
Max Gust Speed 23 mph    
Visibility 10 miles    
Events      
Averages and records for this station are not official NWS values.
T = Trace of Precipitation, MM = Missing Value Source: NWS Daily Summary

Daily Weather History Graph

Daily Weather History Graph

Search for Another Location

Airport or City:

Trip Planner

Search our weather history database for the weather conditions in past years. The results will help you decide how hot, cold, wet, or windy it might be!

Date:

Astronomy

Jul. 04, 2013 Rise Set
Actual Time 5:36 AM CDT 9:04 PM CDT
Civil Twilight 4:59 AM CDT 9:41 PM CDT
Nautical Twilight 4:11 AM CDT 10:29 PM CDT
Astronomical Twilight 3:09 AM CDT 11:31 PM CDT
Moon 2:57 AM CDT (7/4) 6:07 PM CDT (7/4)
Length of Visible Light 16h 41m
Length of Day
15h 28m
Waning Crescent, 11% of the Moon is Illuminated
Jul 4
Waning Crescent
Jul 8
New
Jul 15
First Quarter
Jul 22
Full
Jul 29
Last Quarter

Hourly Weather History & Observations

Time (CDT) Temp. Heat Index Dew Point Humidity Pressure Visibility Wind Dir Wind Speed Gust Speed Precip Events Conditions
12:15 AM 66.2 °F - 51.8 °F 60% 29.96 in 10.0 mi East 3.5 mph - N/A   Clear
12:35 AM 66.6 °F - 52.3 °F 60% 29.96 in 10.0 mi ESE 4.6 mph - N/A   Clear
12:54 AM 66.2 °F - 51.3 °F 59% 29.96 in 10.0 mi SE 5.8 mph - N/A   Clear
1:14 AM 66.6 °F - 51.8 °F 59% 29.96 in 10.0 mi ESE 4.6 mph - N/A   Mostly Cloudy
1:35 AM 65.3 °F - 53.1 °F 65% 29.95 in 10.0 mi ESE 5.8 mph - N/A   Scattered Clouds
1:54 AM 64.4 °F - 53.8 °F 68% 29.95 in 10.0 mi ESE 4.6 mph - N/A   Clear
2:14 AM 64.9 °F - 53.8 °F 67% 29.95 in 10.0 mi Calm Calm - N/A   Scattered Clouds
2:35 AM 66.4 °F - 53.6 °F 63% 29.95 in 10.0 mi SE 3.5 mph - N/A   Scattered Clouds
2:55 AM 66.2 °F - 53.8 °F 64% 29.94 in 10.0 mi SSE 3.5 mph - N/A   Scattered Clouds
3:14 AM 66.2 °F - 54.1 °F 65% 29.94 in 10.0 mi SSE 3.5 mph - N/A   Clear
3:34 AM 66.0 °F - 54.7 °F 67% 29.94 in 10.0 mi South 3.5 mph - N/A   Clear
3:54 AM 65.5 °F - 55.0 °F 69% 29.94 in 10.0 mi South 3.5 mph - N/A   Scattered Clouds
4:15 AM 65.3 °F - 55.4 °F 70% 29.94 in 10.0 mi Calm Calm - N/A   Clear
4:34 AM 64.4 °F - 55.4 °F 73% 29.94 in 10.0 mi SSE 4.6 mph - N/A   Clear
4:55 AM 64.2 °F - 55.4 °F 73% 29.94 in 10.0 mi Calm Calm - N/A   Clear
5:14 AM 64.0 °F - 55.6 °F 74% 29.95 in 10.0 mi South 3.5 mph - N/A   Clear
5:34 AM 63.9 °F - 55.6 °F 74% 29.95 in 10.0 mi South 3.5 mph - N/A   Clear
5:55 AM 63.7 °F - 55.8 °F 75% 29.95 in 10.0 mi South 4.6 mph - N/A   Clear
6:15 AM 63.9 °F - 56.1 °F 76% 29.95 in 10.0 mi South 3.5 mph - N/A   Clear
6:34 AM 64.4 °F - 56.3 °F 75% 29.95 in 10.0 mi South 3.5 mph - N/A   Clear
6:54 AM 64.8 °F - 56.7 °F 75% 29.95 in 10.0 mi South 6.9 mph - N/A   Clear
7:15 AM 65.3 °F - 57.0 °F 75% 29.95 in 10.0 mi South 4.6 mph - N/A   Clear
7:35 AM 67.1 °F - 57.2 °F 70% 29.96 in 10.0 mi South 5.8 mph - N/A   Clear
7:54 AM 68.7 °F - 57.0 °F 66% 29.95 in 10.0 mi South 5.8 mph - N/A   Clear
8:14 AM 70.7 °F - 56.8 °F 61% 29.95 in 10.0 mi South 5.8 mph - N/A   Clear
8:35 AM 71.8 °F - 56.7 °F 59% 29.95 in 10.0 mi South 5.8 mph - N/A   Clear
8:54 AM 72.9 °F - 57.2 °F 58% 29.95 in 10.0 mi South 6.9 mph - N/A   Clear
9:15 AM 73.9 °F - 57.2 °F 56% 29.95 in 10.0 mi South 6.9 mph - N/A   Clear
9:34 AM 74.7 °F - 57.0 °F 54% 29.95 in 10.0 mi SSW 6.9 mph - N/A   Clear
9:55 AM 76.1 °F - 57.0 °F 51% 29.94 in 10.0 mi South 8.1 mph - N/A   Clear
10:14 AM 77.5 °F - 58.1 °F 51% 29.94 in 10.0 mi South 5.8 mph - N/A   Clear
10:35 AM 78.8 °F - 58.5 °F 50% 29.94 in 10.0 mi South 5.8 mph - N/A   Clear
10:54 AM 80.1 °F 80.6 °F 58.1 °F 47% 29.93 in 10.0 mi SSE 5.8 mph - N/A   Clear
11:14 AM 81.0 °F 81.0 °F 57.0 °F 44% 29.93 in 10.0 mi South 6.9 mph - N/A   Clear
11:35 AM 82.6 °F 82.2 °F 57.4 °F 42% 29.92 in 10.0 mi SSE 6.9 mph - N/A   Clear
11:55 AM 83.7 °F 82.5 °F 55.0 °F 37% 29.92 in 10.0 mi South 8.1 mph - N/A   Clear
12:14 PM 83.8 °F 82.6 °F 54.3 °F 36% 29.92 in 10.0 mi South 9.2 mph - N/A   Clear
12:35 PM 85.3 °F 83.6 °F 53.8 °F 34% 29.92 in 10.0 mi SSE 8.1 mph - N/A   Clear
12:54 PM 86.0 °F 84.0 °F 53.2 °F 32% 29.91 in 10.0 mi South 10.4 mph 17.3 mph N/A   Clear
1:14 PM 85.8 °F - 51.4 °F 30% 29.91 in 10.0 mi South 9.2 mph 19.6 mph N/A   Clear
1:34 PM 86.4 °F - 52.5 °F 31% 29.90 in 10.0 mi South 12.7 mph 16.1 mph N/A   Clear
1:55 PM 87.4 °F - 52.2 °F 30% 29.90 in 10.0 mi South 10.4 mph - N/A   Clear
2:14 PM 86.9 °F - 48.9 °F 27% 29.90 in 10.0 mi SSW 11.5 mph 18.4 mph N/A   Clear
2:35 PM 87.3 °F - 48.4 °F 26% 29.89 in 10.0 mi South 10.4 mph 23.0 mph N/A   Clear
2:54 PM 87.8 °F - 48.2 °F 25% 29.89 in 10.0 mi SSW 12.7 mph 17.3 mph N/A   Clear
3:14 PM 88.5 °F - 47.1 °F 24% 29.89 in 10.0 mi South 12.7 mph 19.6 mph N/A   Clear
3:35 PM 87.8 °F - 46.4 °F 24% 29.88 in 10.0 mi South 11.5 mph 19.6 mph N/A   Clear
3:54 PM 88.2 °F - 46.2 °F 23% 29.88 in 10.0 mi South 10.4 mph 16.1 mph N/A   Clear
4:15 PM 88.2 °F - 46.0 °F 23% 29.88 in 10.0 mi South 12.7 mph 21.9 mph N/A   Clear
4:34 PM 88.3 °F - 45.1 °F 22% 29.87 in 10.0 mi South 11.5 mph 21.9 mph N/A   Clear
4:55 PM 88.2 °F - 45.9 °F 23% 29.87 in 10.0 mi South 13.8 mph 18.4 mph N/A   Clear
5:14 PM 88.0 °F - 46.0 °F 23% 29.87 in 10.0 mi South 13.8 mph - N/A   Clear
5:35 PM 87.3 °F - 45.7 °F 23% 29.86 in 10.0 mi South 8.1 mph - N/A   Clear
5:54 PM 86.9 °F - 48.0 °F 26% 29.86 in 10.0 mi South 10.4 mph 16.1 mph N/A   Clear
6:14 PM 86.4 °F - 47.3 °F 26% 29.86 in 10.0 mi South 10.4 mph 16.1 mph N/A   Clear
6:35 PM 86.5 °F - 46.6 °F 25% 29.86 in 10.0 mi South 11.5 mph 18.4 mph N/A   Clear
6:55 PM 86.0 °F - 47.7 °F 26% 29.86 in 10.0 mi South 8.1 mph - N/A   Clear
7:14 PM 85.3 °F - 47.7 °F 27% 29.85 in 10.0 mi South 4.6 mph - N/A   Clear
7:34 PM 84.7 °F - 48.7 °F 29% 29.85 in 10.0 mi SSE 4.6 mph - N/A   Clear
7:55 PM 83.5 °F - 50.0 °F 31% 29.85 in 10.0 mi SSE 3.5 mph - N/A   Clear
8:15 PM 82.9 °F - 50.5 °F 32% 29.85 in 10.0 mi SSE 3.5 mph - N/A   Clear
8:35 PM 81.5 °F - 52.0 °F 36% 29.85 in 10.0 mi SSE 3.5 mph - N/A   Clear
8:55 PM 80.2 °F - 52.9 °F 39% 29.85 in 10.0 mi SSE 3.5 mph - N/A   Clear
9:14 PM 78.8 °F - 54.0 °F 42% 29.85 in 10.0 mi SSE 3.5 mph - N/A   Clear
9:34 PM 77.9 °F - 53.6 °F 43% 29.86 in 10.0 mi SSE 3.5 mph - N/A   Clear
9:55 PM 77.7 °F - 52.9 °F 42% 29.87 in 10.0 mi SSE 4.6 mph - N/A   Clear
10:14 PM 77.4 °F - 52.7 °F 42% 29.87 in 10.0 mi SSE 4.6 mph - N/A   Clear
10:34 PM 76.6 °F - 52.7 °F 43% 29.88 in 10.0 mi SSE 5.8 mph - N/A   Clear
10:54 PM 76.3 °F - 52.5 °F 43% 29.89 in 10.0 mi South 4.6 mph - N/A   Clear
11:14 PM 76.1 °F - 52.3 °F 43% 29.89 in 10.0 mi SSE 3.5 mph - N/A   Clear
11:34 PM 75.9 °F - 52.2 °F 43% 29.89 in 10.0 mi South 6.9 mph - N/A   Clear
11:55 PM 75.4 °F - 52.3 °F 44% 29.89 in 10.0 mi South 8.1 mph - N/A   Clear